Notices

What's New in latest Release from April 7th, 2021:

- Updated Glossary, including Speed of Maximum Gust, and Total Hourly Precipitation

- Updated national and regional climate services offices contacts and prices information

- Addition of station inventory lists for 1981-2010, 1971-2000, and 1961-1990 Normals.

If you haven't already, please take our survey and provide feedback about our website: https://eccc.sondage-survey.ca/f/LanguageSelection.aspx?s=442ca660-fcf1-47c0-95a9-59707d6fd709

Hourly Data Report for June 25, 2004

SHERBROOKE A
QUEBEC

45°26'00.000" N
71°41'00.000" W
241.40 m
7028124
71610
YSC

Download Data

Hourly Data (June 2004)
Hourly Data Report for June 25, 2004
TIME
LST
Temp Definition
°C
Dew Point Definition
°C
Rel Hum Definition
%
Precip. Amount Definition
mm

Wind Dir Definition
10's deg

Wind Spd Definition
km/h
Visibility Definition
km
Stn Press Definition
kPa
Hmdx Definition


Wind Chill Definition


Weather Definition


00:00 20.8 13.6 63   18 15 15.0 98.36      
01:00 17.1 14.1 83   28 30 15.0 98.49      
02:00 13.1 11.8 92   28 13 2.9 98.71     Moderate Rain
03:00 12.9 11.7 92   27 13 9.7 98.82     Rain
04:00 10.4 8.6 89   26 19 8.0 99.00     Moderate Rain
05:00 9.0 7.5 90   22 7 6.4 99.05     Rain
06:00 9.0 7.5 90   21 6 15.0 99.11     Rain
07:00 9.6 7.8 89   23 6 24.1 99.15     Cloudy
08:00 10.4 8.8 90   21 6 24.1 99.16     Cloudy
09:00 11.5 9.1 85   27 4 24.1 99.11     Cloudy
10:00 13.5 9.0 74   23 7 24.1 99.10     Mostly Cloudy
11:00 14.6 8.3 66   25 9 24.1 99.10     Mostly Cloudy
12:00 15.2 7.9 62   21 4 24.1 99.09     Mostly Cloudy
13:00 15.7 7.9 60   26 9 24.1 99.01     Mostly Cloudy
14:00 16.3 8.1 58   22 11 24.1 99.01     Mostly Cloudy
15:00 16.4 7.4 55   26 11 24.1 98.99     Cloudy
16:00 15.5 8.2 62   23 7 24.1 98.96     Cloudy
17:00 15.6 8.4 62   24 6 15.0 98.90      
18:00 14.9 8.3 65   27 9 15.0 98.84      
19:00 14.9 9.2 69   23 4 15.0 98.73      
20:00 11.4 8.8 84   18 6 15.0 98.72      
21:00 8.7 7.2 90     0 15.0 98.75      
22:00 6.6 5.0 90   14 6 15.0 98.75      
23:00 6.2 5.2 93     0 15.0 98.75      

Notes on Data Quality.

Legend

  • E = Estimated
  • M = Missing
  • NA = Not Available*
  • [empty] = Indicates an unobserved value
Date modified: